Regional Weather Roundup
Issued by NWS Midland/Odessa, TX

Skip options and go directly to product.
Home | Oldest Version | Previous Version | Current Version | All | Graphics & Text | Save Text | Print | Product List | Glossary On

Skip product version selection by date and time.   
721
ASUS44 KMAF 280201
RWRMAF
MIDLAND AREA WEATHER ROUNDUP
NATIONAL WEATHER SERVICE MIDLAND TX
900 PM CDT WED MAY 27 2015

...IN SOUTHWEST TEXAS AND SOUTHEAST NEW MEXICO...

CITY           SKY/WX    TMP DP  RH WIND       PRES   REMARKS
ALPINE         CLEAR     78  58  50 SE18G24   30.06R
ANDREWS        FAIR      81  59  47 SW20G26   30.03R
ARTESIA        MOCLDY    81  54  39 SE25      29.96R
BIG SPRING     CLOUDY    84  64  51 SE12      30.00R
CARLSBAD       PTCLDY    76  55  48 SE7       29.95R
DRYDEN           N/A     81  68  64 E16G22    29.96R
FORT STOCKTON  TSTM      75  67  76 E17G37    29.97R
GUAD PASS      CLOUDY    71  54  54 NE25      30.09R
HOBBS          CLOUDY    66  57  72 SW5       30.01S
MARFA          CLEAR     75  59  57 SE20G25   30.05R
MIDLAND AIRPK  CLOUDY    83  64  51 S14       30.01R
MIDLAND INTL   CLOUDY    82  64  54 SE10      30.01R
ODESSA         CLOUDY    83  62  49 SE12      30.02R
PECOS          CLOUDY    80  64  58 E10G21    29.91R
PRESIDIO       FAIR      95  42  15 E13G26    29.83R
SEMINOLE       CLOUDY    80  60  50 S15       30.01R
SNYDER         PTCLDY    80  68  66 SE7       29.99R
WINK           CLOUDY    82  63  52 E16       29.94R
$$
...OTHER STATIONS IN TEXAS...

CITY           SKY/WX    TMP DP  RH WIND       PRES   REMARKS
ABILENE        CLEAR     80  69  69 SE14      30.00R
AMARILLO       MOCLDY    67  55  65 S20       30.02R
AUSTIN         MOCLDY    78  72  81 S9        29.99R
BROWNSVILLE    CLOUDY    82  77  84 E9        29.98R
CORPUS CHRISTI MOCLDY    81  75  82 SE10      30.00R
DALLAS FTW     CLOUDY    76  68  76 S7        30.02R THUNDER
DEL RIO        CLOUDY    82  69  64 SE10      29.92R
EL PASO        MOCLDY    88  17   7 NW7       29.93S
HOUSTON INT    PTCLDY    79  70  74 S5        30.04R
LUBBOCK        MOCLDY    78  63  59 SE15      29.98R
SAN ANGELO     CLOUDY    80  66  62 S10       29.96S
SAN ANTONIO    MOCLDY    80  71  74 SE14      30.00R
WACO           CLOUDY    80  71  74 SE8       30.01R
WICHITA FALLS  NOT AVBL
$$
...OTHER LOCATIONS IN NEW MEXICO...

CITY           SKY/WX    TMP DP  RH WIND       PRES   REMARKS
ALAMAGORDO     PTCLDY    81  16   9 SW6       29.97S
ALBUQUERQUE    CLOUDY    76  33  21 CALM      30.05R
CANNON AFB     PTCLDY    72  55  55 S7        30.01R
CLOVIS         MOCLDY    72  54  53 S5          N/A
HOLLOMAN AFB   PTCLDY    81  20  10 SW5       29.95R
ROSWELL        MOCLDY    80  45  28 S8        29.94R
RUIDOSO        MOCLDY    68  23  18 SW9       30.18S
SANTA FE       CLOUDY    66  31  27 CALM      30.12R
TRUTH OR CONSE PTCLDY    82  13   7 S9        29.99R
TUCUMCARI      PTCLDY    74  46  36 SW5       29.97R
$$

USA.gov is the U.S. government's official web portal to all federal, state and local government web resources and services.